Location: Manchester NH
(43.0000°N, 71.5000°W)
Time: 22:36:19
(UTC-05:00)

N. Korean satellite - Visible Passes

Search period start: 15 December 2017 00:00
Search period end: 25 December 2017 00:00
Orbit: 461 x 513 km, 97.2° (Epoch: 15 December)

Date Brightness Start Highest point End Pass type
(mag) Time Alt. Az. Time Alt. Az. Time Alt. Az.
15 Dec 10.1 05:25:31 10° ENE 05:26:44 11° E 05:27:54 10° ESE visible
15 Dec 6.5 17:33:27 10° SSE 17:37:08 69° ENE 17:40:54 10° N visible
16 Dec 6.7 06:33:17 10° NNE 06:37:01 82° ESE 06:40:39 10° S visible
16 Dec 7.2 17:10:15 10° SE 17:13:40 35° ENE 17:17:07 10° N visible
16 Dec 9.7 18:44:54 10° SW 18:47:17 16° W 18:49:42 10° NW visible
17 Dec 8.2 06:09:54 10° NNE 06:13:24 39° E 06:16:50 10° SSE visible
17 Dec 8.0 16:47:33 10° ESE 16:50:16 19° ENE 16:53:00 10° NNE visible
17 Dec 8.7 18:20:16 10° SSW 18:23:34 30° W 18:26:55 10° NNW visible
18 Dec 9.5 05:46:52 10° NE 05:49:42 21° E 05:52:29 10° SE visible
18 Dec 7.2 17:56:15 10° S 17:59:56 59° W 18:03:40 10° NNW visible
19 Dec 10.2 05:24:54 10° ENE 05:25:55 11° E 05:26:56 10° ESE visible
19 Dec 6.6 17:32:39 10° SSE 17:36:22 68° ENE 17:40:07 10° N visible
20 Dec 6.7 06:32:32 10° NNE 06:36:13 81° ESE 06:39:48 10° S visible
20 Dec 7.3 17:09:28 10° SE 17:12:52 34° ENE 17:16:19 10° N visible
20 Dec 9.7 18:44:03 10° SW 18:46:29 16° W 18:48:56 10° NW visible
21 Dec 8.2 06:09:08 10° NNE 06:12:35 39° E 06:15:57 10° SSE visible
21 Dec 8.0 16:46:45 10° ESE 16:49:28 19° ENE 16:52:12 10° NNE visible
21 Dec 8.6 18:19:25 10° SSW 18:22:46 30° W 18:26:08 10° NNW visible
22 Dec 9.5 05:46:07 10° NE 05:48:52 20° E 05:51:35 10° SE visible
22 Dec 7.2 17:55:25 10° S 17:59:06 60° W 18:02:51 10° NNW visible
23 Dec 10.2 05:24:18 10° ENE 05:25:04 11° E 05:25:51 10° ESE visible
23 Dec 6.6 17:31:49 10° SSE 17:35:33 67° ENE 17:39:17 10° N visible
24 Dec 6.7 06:31:42 10° NNE 06:35:21 80° ESE 06:38:54 10° S visible
24 Dec 7.3 17:08:38 10° SE 17:12:02 34° ENE 17:15:28 10° N visible
24 Dec 9.7 18:43:10 10° SW 18:45:38 17° W 18:48:08 10° NW visible
